Location: *
(51.4660°N, 0.3360°W)
Time: 05:27:59
(UTC+00:00)

Cosmos 2227 Rocket - Pass Details

Date: 19 September 2019
Orbit: 837 x 847 km, 71.0° (Epoch: 22 October)

Event Time Altitude Azimuth Distance (km) Brightness Sun altitude
Rises 20:30:34 0° 208° (SSW) 3,384 5.3 -21.9°
Reaches altitude 10° 20:32:59 10° 208° (SSW) 2,455 4.6 -22.2°
Maximum altitude 20:38:38 90° 296° (WNW) 851 2.1 -22.9°
Drops below altitude 10° 20:44:21 10° 30° (NNE) 2,477 4.7 -23.6°
Sets 20:46:48 0° 31° (NNE) 3,417 5.4 -23.9°
